[[{"header":{"parameterUnit":"m.s-1","parameterCategory":2,"la1":30.2991,"la2":30.254,"lo1":-89.0895,"lo2":-89.0444,"dy":0.0017,"dx":0.0017,"nx":28,"ny":28,"refTime":"2023-09-29T21:00:00:Z","depth":"0","parameterNumber":2,"parameterNumberName":"U-component_of_CURRENTS"},"data":[0,0,0,0,0,0,0,0,0,0,0,0,0,0,0,0,0,0,0,0,0,0,0,0,0,0,0,0,0,0,0,0,0,0,0,0,0,0,0,0,0,0,0,0,0,0,0,0,0,0,0,0,0,0,0,0,0,0,-0.2548,-0.2548,0,-0.2457,-0.2455,-0.2453,-0.2346,-0.2346,-0.2346,-0.2345,-0.2247,-0.2244,-0.2242,0,0,0,0,0,0,0,0,0,0,0,0,0,-0.2416,-0.2419,-0.2548,-0.2548,-0.2548,-0.2458,-0.2455,-0.2452,-0.2346,-0.2346,-0.2346,-0.2345,-0.2248,-0.2245,-0.2242,0,0,0,0,0,0,0,0,0,0,0,0,0,-0.24,-0.242,-0.2548,-0.2496,-0.2492,-0.2458,-0.2455,-0.2451,-0.2346,-0.2346,-0.2346,-0.2345,-0.2249,-0.2245,-0.2241,-0.2223,0,0,-0.223,-0.2228,0,0,0,0,0,0,0,0,-0.2401,-0.2403,-0.2504,-0.25,-0.2495,-0.2427,-0.2373,-0.238,-0.2346,-0.2384,-0.2345,-0.2345,-0.2317,-0.2308,-0.2268,-0.2219,-0.2214,-0.223,-0.2227,-0.2226,-0.2225,0,0,0,0,0,0,0,-0.2402,-0.2405,-0.2495,-0.2504,-0.2499,-0.2406,-0.2404,-0.2371,-0.2341,-0.2381,-0.2377,-0.2393,-0.2312,-0.2272,-0.2266,-0.2213,-0.223,-0.2226,-0.2224,-0.2223,-0.2154,-0.2154,0,0,0,0,0,0,-0.2458,-0.2408,-0.2499,-0.2495,-0.2465,-0.2411,-0.2407,-0.2436,-0.2341,-0.2331,-0.2393,-0.2388,-0.2278,-0.227,-0.2262,-0.2267,-0.2226,-0.2222,-0.222,-0.2153,-0.2154,-0.2154,0,0,0,0,0,0,-0.2456,-0.2468,-0.2503,-0.246,-0.246,-0.2417,-0.2447,-0.2435,-0.2397,-0.2353,-0.2339,-0.2372,-0.2278,-0.2267,-0.2236,-0.2262,-0.2221,-0.2217,-0.2153,-0.2154,-0.2154,-0.2259,0,0,0,0,0,0,-0.2452,-0.2467,-0.249,-0.2465,-0.2466,-0.2489,-0.2449,-0.2434,-0.2415,-0.2407,-0.2331,-0.232,-0.2277,-0.2242,-0.2232,-0.2256,-0.2214,-0.2152,-0.2153,-0.2154,-0.2255,-0.2263,-0.227,0,0,0,0,0,-0.2448,-0.2491,-0.2491,-0.2502,-0.2504,-0.2492,-0.248,-0.2435,-0.2415,-0.2397,-0.235,-0.2323,-0.224,-0.2239,-0.2228,-0.2251,-0.2152,-0.2153,-0.2154,-0.2251,-0.2261,-0.2269,0,0,0,0,0,0,-0.2457,-0.2486,-0.2484,-0.2538,-0.2522,-0.248,-0.2474,-0.2443,-0.2387,-0.2388,-0.2323,-0.231,-0.2295,-0.2254,-0.2255,-0.2232,-0.2194,-0.2192,-0.2271,-0.228,-0.2287,-0.2307,-0.2211,0,0,0,0,0,-0.2475,-0.2499,-0.2512,-0.2546,-0.2553,-0.2511,-0.2498,-0.2477,-0.244,-0.2413,-0.2353,-0.2308,-0.2288,-0.227,-0.2232,-0.2218,-0.2207,-0.2225,-0.2233,-0.224,-0.2247,-0.226,-0.227,-0.2157,-0.2157,-0.2157,0,0,-0.249,-0.2508,-0.2524,-0.2547,-0.253,-0.2533,-0.2497,-0.2499,-0.2487,-0.2417,-0.2363,-0.2331,-0.2289,-0.2273,-0.2263,-0.2244,-0.2267,-0.2241,-0.2247,-0.2251,-0.2262,-0.2273,-0.2283,-0.2158,-0.2158,-0.2158,0,0,-0.2511,-0.2552,-0.2566,-0.2565,-0.2572,-0.2556,-0.2565,-0.2527,-0.2497,-0.2457,-0.242,-0.2405,-0.2329,-0.2319,-0.2307,-0.2332,-0.2307,-0.2319,-0.2373,-0.2386,-0.2397,-0.2405,-0.2417,-0.2426,-0.2322,-0.2323,-0.2323,0,-0.2516,-0.256,-0.2563,-0.2574,-0.259,-0.2574,-0.2591,-0.256,-0.2504,-0.2502,-0.2454,-0.2398,-0.2354,-0.2384,-0.2382,-0.2354,-0.2353,-0.2349,-0.24,-0.2408,-0.2415,-0.2425,-0.2434,-0.2328,-0.2327,-0.2327,-0.2326,0,-0.2541,-0.2576,-0.2592,-0.2604,-0.261,-0.2634,-0.2627,-0.2609,-0.2576,-0.255,-0.2549,-0.2491,-0.2462,-0.2454,-0.2417,-0.2461,-0.2443,-0.2414,-0.2386,-0.2434,-0.244,-0.2447,-0.2335,-0.2333,-0.2332,-0.233,0,0,-0.254,-0.2598,-0.26,-0.2622,-0.2644,-0.2652,-0.2661,-0.2674,-0.2695,-0.2632,-0.2653,-0.2608,-0.2588,-0.2572,-0.2546,-0.2552,-0.2593,-0.2504,-0.2502,-0.2532,-0.2629,-0.2504,-0.25,-0.2578,-0.2579,-0.2581,-0.2618,0,-0.2551,-0.259,-0.2622,-0.2659,-0.2683,-0.2705,-0.2717,-0.2727,-0.2717,-0.2723,-0.271,-0.2702,-0.2634,-0.2632,-0.2633,-0.2604,-0.2615,-0.2586,-0.2563,-0.2562,-0.246,-0.2504,-0.2398,-0.2412,-0.2625,-0.2626,-0.2627,0,-0.255,-0.2582,-0.262,-0.2705,-0.2724,-0.2745,-0.28,-0.2807,-0.2837,-0.2832,-0.2842,-0.2821,-0.2829,-0.2755,-0.2744,-0.273,-0.2684,-0.2658,-0.2658,-0.2509,-0.245,-0.2394,-0.2417,-0.2401,-0.2637,-0.2636,-0.2636,0,-0.2498,-0.259,-0.2624,-0.2644,-0.2716,-0.2751,-0.2796,-0.2834,-0.2858,-0.2898,-0.2912,-0.2934,-0.2909,-0.2891,-0.2782,-0.278,-0.2759,-0.2752,-0.261,-0.2602,-0.2487,-0.2464,-0.2501,-0.2752,-0.2752,-0.2752,-0.2752,0,-0.247,-0.2507,-0.2613,-0.2608,-0.2695,-0.2745,-0.2818,-0.2856,-0.2919,-0.2916,-0.2957,-0.2941,-0.2933,-0.2897,-0.2838,-0.2722,-0.2795,-0.263,-0.2604,-0.2518,-0.2498,-0.2455,-0.2459,-0.2754,-0.2753,-0.2753,-0.2753,0,-0.2374,-0.2436,-0.249,-0.2598,-0.2649,-0.2695,-0.2831,-0.2852,-0.2926,-0.2923,-0.2929,-0.2955,-0.288,-0.2862,-0.2811,-0.275,-0.263,-0.2622,-0.2513,-0.2472,-0.2331,-0.2343,-0.2306,-0.2255,-0.2523,-0.252,-0.2518,0,-0.2326,-0.2332,-0.246,-0.2496,-0.2546,-0.2647,-0.2685,-0.2814,-0.2816,-0.2873,-0.2832,-0.2827,-0.2725,-0.2661,-0.2581,-0.2507,-0.2486,-0.2374,-0.2342,-0.2312,-0.2311,-0.231,-0.2271,-0.2253,-0.2248,-0.2245,-0.2242,0,-0.2227,-0.2269,-0.2297,-0.2383,-0.2442,-0.2523,-0.259,-0.2603,-0.2663,-0.2666,-0.2586,-0.2544,-0.2491,-0.2363,-0.2311,-0.2251,-0.2313,-0.2294,-0.2306,-0.2132,-0.2095,-0.2034,-0.225,-0.221,-0.2213,-0.2215,-0.2217,-0.2219,-0.2146,-0.2155,-0.2187,-0.2267,-0.2328,-0.2329,-0.2313,-0.2341,-0.2315,-0.2242,-0.2293,-0.2201,-0.2189,-0.2096,-0.2058,-0.199,-0.2037,-0.1947,-0.1979,-0.1994,-0.1892,-0.2021,-0.1911,-0.1912,-0.1914,-0.1915,-0.1916,0,-0.2035,-0.2041,-0.2083,-0.2126,-0.2108,-0.2201,-0.218,-0.2094,-0.1957,-0.1965,-0.1888,-0.1862,-0.1788,-0.183,-0.1792,-0.1724,-0.1716,-0.1689,-0.1708,-0.1694,-0.1845,-0.1778,-0.1581,-0.1581,-0.1581,-0.1581,-0.1582,-0.1582,-0.1961,-0.1937,-0.1957,-0.1894,-0.1905,-0.1796,-0.1728,-0.1619,-0.1591,-0.1477,-0.1495,-0.158,-0.1614,-0.1735,-0.1676,-0.1608,-0.1597,-0.1504,-0.1556,-0.1708,-0.1737,-0.1764,-0.1704,-0.1495,-0.1495,-0.1353,-0.1352,-0.1351]},{"header":{"parameterUnit":"m.s-1","parameterCategory":2,"la1":30.2991,"la2":30.254,"lo1":-89.0895,"lo2":-89.0444,"dy":0.0017,"dx":0.0017,"nx":28,"ny":28,"refTime":"2023-09-29T21:00:00:Z","depth":"0","parameterNumber":3,"parameterNumberName":"V-component_of_CURRENTS"},"data":[0,0,0,0,0,0,0,0,0,0,0,0,0,0,0,0,0,0,0,0,0,0,0,0,0,0,0,0,0,0,0,0,0,0,0,0,0,0,0,0,0,0,0,0,0,0,0,0,0,0,0,0,0,0,0,0,0,0,-0.0423,-0.0423,0,-0.0368,-0.0367,-0.0366,-0.0313,-0.0313,-0.0313,-0.0313,-0.0234,-0.0232,-0.023,0,0,0,0,0,0,0,0,0,0,0,0,0,-0.039,-0.0391,-0.0423,-0.0423,-0.0423,-0.0368,-0.0367,-0.0365,-0.0313,-0.0313,-0.0313,-0.0313,-0.0235,-0.0232,-0.023,0,0,0,0,0,0,0,0,0,0,0,0,0,-0.0371,-0.0391,-0.0423,-0.0395,-0.0393,-0.0368,-0.0367,-0.0365,-0.0313,-0.0313,-0.0313,-0.0313,-0.0235,-0.0232,-0.0229,-0.0212,0,0,-0.022,-0.0219,0,0,0,0,0,0,0,0,-0.0372,-0.0371,-0.04,-0.0397,-0.0395,-0.0353,-0.0326,-0.0315,-0.0313,-0.0337,-0.0313,-0.0313,-0.0276,-0.027,-0.025,-0.0208,-0.0205,-0.022,-0.0218,-0.0217,-0.0216,0,0,0,0,0,0,0,-0.0374,-0.0373,-0.0395,-0.04,-0.0397,-0.0354,-0.0351,-0.0323,-0.0302,-0.0335,-0.0332,-0.0337,-0.0273,-0.0253,-0.0248,-0.0204,-0.022,-0.0217,-0.0215,-0.0214,-0.0144,-0.0144,0,0,0,0,0,0,-0.0399,-0.0375,-0.0397,-0.0394,-0.039,-0.0356,-0.0352,-0.0361,-0.0303,-0.0296,-0.0337,-0.0335,-0.0259,-0.0252,-0.0245,-0.0223,-0.0217,-0.0214,-0.0212,-0.0144,-0.0144,-0.0144,0,0,0,0,0,0,-0.0398,-0.0402,-0.0399,-0.0388,-0.0385,-0.0358,-0.0367,-0.036,-0.0341,-0.0306,-0.0297,-0.0326,-0.0258,-0.025,-0.0224,-0.022,-0.0212,-0.0209,-0.0144,-0.0144,-0.0144,-0.0177,0,0,0,0,0,0,-0.0398,-0.0402,-0.0409,-0.039,-0.0387,-0.0388,-0.0368,-0.036,-0.0347,-0.0344,-0.0294,-0.0286,-0.0258,-0.0229,-0.0221,-0.0215,-0.0207,-0.0144,-0.0144,-0.0144,-0.0176,-0.0179,-0.018,0,0,0,0,0,-0.0397,-0.0409,-0.041,-0.0413,-0.0402,-0.0388,-0.0382,-0.0357,-0.0347,-0.0338,-0.0309,-0.0288,-0.0223,-0.0226,-0.0217,-0.021,-0.0144,-0.0144,-0.0144,-0.0175,-0.0178,-0.018,0,0,0,0,0,0,-0.0401,-0.0405,-0.0406,-0.042,-0.0409,-0.0382,-0.0375,-0.0361,-0.0328,-0.0323,-0.0287,-0.0277,-0.0251,-0.0229,-0.0234,-0.0191,-0.018,-0.0178,-0.0207,-0.0209,-0.0211,-0.0216,-0.0204,0,0,0,0,0,-0.0409,-0.0417,-0.0414,-0.0425,-0.0423,-0.04,-0.039,-0.0374,-0.035,-0.0335,-0.0301,-0.0268,-0.0243,-0.0227,-0.0196,-0.0174,-0.0141,-0.0164,-0.0166,-0.0168,-0.0166,-0.0123,-0.0121,-0.0144,-0.0144,-0.0144,0,0,-0.0414,-0.0419,-0.0422,-0.0426,-0.0414,-0.0406,-0.0391,-0.0381,-0.0368,-0.0333,-0.0298,-0.0272,-0.0239,-0.0212,-0.0199,-0.0194,-0.0142,-0.0168,-0.017,-0.0166,-0.0123,-0.0121,-0.0119,-0.0144,-0.0144,-0.0144,0,0,-0.0427,-0.0434,-0.0442,-0.0432,-0.0427,-0.0411,-0.0413,-0.0385,-0.0367,-0.0341,-0.0313,-0.0288,-0.0243,-0.0217,-0.0201,-0.0198,-0.0155,-0.0189,-0.02,-0.016,-0.0158,-0.0155,-0.0101,-0.0093,-0.019,-0.019,-0.019,0,-0.0434,-0.0452,-0.0441,-0.0442,-0.0442,-0.0418,-0.0423,-0.0394,-0.0358,-0.0348,-0.0335,-0.0272,-0.0244,-0.0217,-0.0216,-0.0201,-0.0167,-0.0195,-0.0163,-0.016,-0.0157,-0.0101,-0.0092,-0.0192,-0.0191,-0.0191,-0.0191,0,-0.0449,-0.0459,-0.0463,-0.046,-0.0452,-0.0452,-0.0427,-0.0405,-0.0386,-0.036,-0.0328,-0.0287,-0.0253,-0.024,-0.0226,-0.0195,-0.0172,-0.0171,-0.0157,-0.0156,-0.0098,-0.0088,-0.0194,-0.0193,-0.0193,-0.0192,0,0,-0.0482,-0.0478,-0.048,-0.0494,-0.0467,-0.0472,-0.0443,-0.0426,-0.0416,-0.0367,-0.0348,-0.0304,-0.0282,-0.0263,-0.0237,-0.0202,-0.0149,-0.018,-0.0177,-0.0127,-0.0044,0.0002,0.0017,-0.0142,-0.0141,-0.014,-0.0009,0,-0.0505,-0.053,-0.051,-0.0528,-0.0544,-0.0507,-0.0488,-0.046,-0.0427,-0.0392,-0.0344,-0.0314,-0.029,-0.0279,-0.0238,-0.017,-0.0127,-0.0184,-0.0051,-0.0047,-0.0008,0.0028,0.0051,0.0173,0.0001,0.0003,0.0004,0,-0.0529,-0.0551,-0.0577,-0.059,-0.0592,-0.0584,-0.057,-0.0548,-0.0481,-0.0454,-0.0404,-0.0355,-0.0288,-0.0276,-0.0149,-0.0185,-0.0119,-0.0065,-0.0059,0.0003,0.0017,0.0143,0.0197,0.0305,0.0019,0.0018,0.0017,0,-0.0579,-0.06,-0.0634,-0.0633,-0.0628,-0.0629,-0.0622,-0.0569,-0.0562,-0.0488,-0.046,-0.0374,-0.0324,-0.0231,-0.0105,-0.0127,0.0045,0.0027,0.0134,0.0139,0.0195,0.0202,0.0368,0.0113,0.0112,0.0112,0.0112,0,-0.0614,-0.0643,-0.0665,-0.0678,-0.0728,-0.0692,-0.0709,-0.0679,-0.0626,-0.0605,-0.0502,-0.045,-0.0312,-0.0191,-0.0095,0.0071,0.006,0.0151,0.018,0.0185,0.019,0.0314,0.0348,0.0117,0.0116,0.0115,0.0114,0,-0.0654,-0.0659,-0.0719,-0.0741,-0.0749,-0.0789,-0.0786,-0.0791,-0.0717,-0.0679,-0.0654,-0.0498,-0.0325,-0.0169,0.0006,0.0092,0.0307,0.0288,0.0297,0.0324,0.0504,0.0534,0.0723,0.0774,0.0425,0.0427,0.0428,0,-0.0669,-0.0701,-0.0779,-0.083,-0.0844,-0.0884,-0.0899,-0.0852,-0.085,-0.0702,-0.0688,-0.0494,-0.0347,-0.0045,0.0146,0.0354,0.0411,0.0482,0.0436,0.0541,0.0596,0.0603,0.0632,0.0505,0.0507,0.0509,0.051,0,-0.0717,-0.0753,-0.0814,-0.0923,-0.0975,-0.102,-0.1033,-0.1032,-0.0945,-0.0864,-0.0711,-0.0564,-0.0244,0.0034,0.0314,0.0422,0.0561,0.0524,0.0632,0.0681,0.0702,0.0756,0.0398,0.0526,0.0524,0.0523,0.0522,0.0522,-0.0768,-0.0844,-0.0933,-0.1042,-0.11,-0.1133,-0.1144,-0.1114,-0.106,-0.0898,-0.0751,-0.0489,-0.0077,0.0335,0.0472,0.0758,0.07,0.0816,0.0849,0.0852,0.0889,0.0575,0.0728,0.0727,0.0727,0.0726,0.0726,0,-0.0844,-0.0927,-0.1037,-0.1157,-0.1225,-0.1222,-0.1219,-0.118,-0.1087,-0.0898,-0.0713,-0.022,0.0172,0.0527,0.0951,0.1083,0.1078,0.1138,0.1152,0.1168,0.0903,0.0893,0.1088,0.1088,0.1088,0.1088,0.1088,0.1088,-0.0891,-0.1024,-0.1094,-0.1244,-0.1297,-0.1332,-0.1312,-0.1207,-0.1068,-0.0733,-0.0436,-0.0193,0.0345,0.1025,0.1385,0.1392,0.1482,0.1465,0.1517,0.1331,0.1303,0.1276,0.1276,0.1549,0.1549,0.1756,0.1759,0.176]}],[{"header":{"parameterUnit":"m.s-1","parameterCategory":2,"la1":30.2991,"la2":30.254,"lo1":-89.0895,"lo2":-89.0444,"dy":0.0017,"dx":0.0017,"nx":28,"ny":28,"refTime":"2023-09-29T21:00:00:Z","depth":"2","parameterNumber":2,"parameterNumberName":"U-component_of_CURRENTS"},"data":[0,0,0,0,0,0,0,0,0,0,0,0,0,0,0,0,0,0,0,0,0,0,0,0,0,0,0,0,0,0,0,0,0,0,0,0,0,0,0,0,0,0,0,0,0,0,0,0,0,0,0,0,0,0,0,0,0,0,-0.1679,-0.1679,0,-0.1789,-0.1792,-0.1794,-0.1895,-0.1894,-0.1894,-0.1893,-0.174,-0.1737,-0.1733,0,0,0,0,0,0,0,0,0,0,0,0,0,-0.1689,-0.1689,-0.1679,-0.1679,-0.1678,-0.1788,-0.1792,-0.1795,-0.1895,-0.1894,-0.1894,-0.1893,-0.1741,-0.1737,-0.1733,0,0,0,0,0,0,0,0,0,0,0,0,0,-0.1748,-0.1689,-0.1679,-0.1728,-0.1732,-0.1788,-0.1792,-0.1796,-0.1895,-0.1894,-0.1893,-0.1893,-0.1743,-0.1737,-0.1732,-0.1713,0,0,-0.1715,-0.1713,0,0,0,0,0,0,0,0,-0.1744,-0.175,-0.1721,-0.1724,-0.1729,-0.1811,-0.1738,-0.1748,-0.1895,-0.1853,-0.1893,-0.1892,-0.1728,-0.1724,-0.1776,-0.1705,-0.1699,-0.1715,-0.1712,-0.1709,-0.1708,0,0,0,0,0,0,0,-0.174,-0.1746,-0.1741,-0.172,-0.1725,-0.1788,-0.1797,-0.1744,-0.1802,-0.1856,-0.1859,-0.1842,-0.1731,-0.1782,-0.1772,-0.1697,-0.1715,-0.171,-0.1707,-0.1705,-0.1642,-0.1644,0,0,0,0,0,0,-0.1683,-0.1741,-0.1737,-0.1743,-0.1714,-0.1787,-0.1798,-0.1801,-0.1809,-0.1806,-0.1843,-0.1846,-0.1791,-0.1778,-0.1766,-0.177,-0.1709,-0.1704,-0.1701,-0.1641,-0.1643,-0.1645,0,0,0,0,0,0,-0.1683,-0.1683,-0.1733,-0.1729,-0.1737,-0.1785,-0.1789,-0.1803,-0.1884,-0.1798,-0.1794,-0.191,-0.179,-0.1774,-0.1703,-0.1763,-0.1702,-0.1697,-0.1639,-0.1641,-0.1644,-0.1758,0,0,0,0,0,0,-0.1684,-0.1683,-0.1697,-0.1725,-0.1734,-0.1741,-0.1788,-0.1805,-0.1863,-0.1871,-0.1852,-0.1837,-0.1788,-0.1712,-0.1698,-0.1754,-0.1693,-0.1637,-0.164,-0.1643,-0.1752,-0.1764,-0.1774,0,0,0,0,0,-0.1684,-0.1733,-0.1698,-0.1697,-0.1742,-0.1738,-0.1751,-0.1796,-0.1867,-0.1879,-0.1863,-0.184,-0.1724,-0.1706,-0.169,-0.1747,-0.1635,-0.1639,-0.1643,-0.1747,-0.1762,-0.1774,0,0,0,0,0,0,-0.1779,-0.1745,-0.1709,-0.175,-0.171,-0.1747,-0.1815,-0.1823,-0.1845,-0.1865,-0.1824,-0.1804,-0.1772,-0.1737,-0.172,-0.1741,-0.1691,-0.1692,-0.1777,-0.1789,-0.18,-0.1833,-0.1688,0,0,0,0,0,-0.1782,-0.179,-0.1741,-0.1763,-0.1779,-0.1802,-0.1827,-0.1813,-0.1816,-0.1837,-0.1806,-0.1792,-0.1778,-0.1761,-0.1711,-0.1705,-0.1692,-0.1744,-0.1755,-0.1764,-0.1782,-0.1801,-0.1816,-0.1657,-0.1657,-0.1656,0,0,-0.1794,-0.18,-0.1786,-0.1776,-0.181,-0.1815,-0.1826,-0.1852,-0.1841,-0.1802,-0.1827,-0.1803,-0.1777,-0.1768,-0.1758,-0.1746,-0.1802,-0.1769,-0.1778,-0.179,-0.1807,-0.1823,-0.1836,-0.1659,-0.1659,-0.1658,0,0,-0.1835,-0.1872,-0.1874,-0.1863,-0.1849,-0.1861,-0.1865,-0.1868,-0.1879,-0.1827,-0.1844,-0.1831,-0.1792,-0.1796,-0.1799,-0.1837,-0.1844,-0.1871,-0.1969,-0.1988,-0.2002,-0.2013,-0.2017,-0.2028,-0.1897,-0.1897,-0.1897,0,-0.1846,-0.1872,-0.187,-0.1888,-0.19,-0.189,-0.1892,-0.1903,-0.1852,-0.1882,-0.1821,-0.187,-0.18,-0.1888,-0.1904,-0.1861,-0.1894,-0.1921,-0.2004,-0.2015,-0.2026,-0.2026,-0.2037,-0.1903,-0.1902,-0.1902,-0.1901,0,-0.187,-0.1899,-0.1947,-0.1949,-0.1941,-0.1969,-0.1927,-0.1953,-0.196,-0.1946,-0.1981,-0.1904,-0.1944,-0.1948,-0.1927,-0.203,-0.2036,-0.2,-0.1974,-0.2049,-0.2044,-0.2054,-0.1912,-0.1909,-0.1908,-0.1906,0,0,-0.1863,-0.1938,-0.1951,-0.1979,-0.1987,-0.1993,-0.2021,-0.2052,-0.2144,-0.2062,-0.2153,-0.2115,-0.2121,-0.2126,-0.2127,-0.2156,-0.2212,-0.2144,-0.2142,-0.2153,-0.2295,-0.2166,-0.2162,-0.2236,-0.2239,-0.224,-0.2263,0,-0.1886,-0.1922,-0.1963,-0.2019,-0.2036,-0.2087,-0.2136,-0.2143,-0.2154,-0.2227,-0.2205,-0.2242,-0.2181,-0.2216,-0.2238,-0.2222,-0.2247,-0.2211,-0.2215,-0.2214,-0.2095,-0.2171,-0.2007,-0.2004,-0.2271,-0.2273,-0.2274,0,-0.1868,-0.1912,-0.1932,-0.2075,-0.2112,-0.2147,-0.2288,-0.2314,-0.2409,-0.2425,-0.2476,-0.2451,-0.249,-0.2391,-0.2415,-0.2425,-0.2373,-0.2342,-0.2341,-0.2189,-0.2102,-0.1971,-0.201,-0.2289,-0.2288,-0.2286,-0.2285,0,-0.1795,-0.1915,-0.1948,-0.1974,-0.2098,-0.2178,-0.2278,-0.2367,-0.2435,-0.2539,-0.2558,-0.2639,-0.2588,-0.261,-0.2466,-0.249,-0.2462,-0.2458,-0.2298,-0.2288,-0.2124,-0.2095,-0.2465,-0.2465,-0.2465,-0.2465,-0.2465,0,-0.1788,-0.1859,-0.1936,-0.196,-0.2097,-0.2156,-0.2318,-0.2442,-0.256,-0.2605,-0.2642,-0.2628,-0.2639,-0.2582,-0.2543,-0.2421,-0.2496,-0.2332,-0.2295,-0.2156,-0.2131,-0.2352,-0.2338,-0.2466,-0.2466,-0.2466,-0.2466,0,-0.1705,-0.1764,-0.1825,-0.1966,-0.2041,-0.211,-0.2345,-0.2428,-0.2553,-0.2589,-0.2603,-0.2625,-0.2552,-0.2522,-0.249,-0.2427,-0.2381,-0.2302,-0.2124,-0.2065,-0.2201,-0.2194,-0.2222,-0.2217,-0.2214,-0.2211,-0.2209,0,-0.1669,-0.1663,-0.1779,-0.1827,-0.192,-0.2063,-0.2149,-0.2377,-0.2421,-0.2524,-0.2489,-0.2464,-0.236,-0.2294,-0.2234,-0.2186,-0.2227,-0.1981,-0.197,-0.2221,-0.2182,-0.2179,-0.2176,-0.1806,-0.1801,-0.1796,-0.1793,0,-0.1597,-0.1619,-0.166,-0.1729,-0.1819,-0.1939,-0.2073,-0.2128,-0.2291,-0.2305,-0.2256,-0.2208,-0.2125,-0.1989,-0.1926,-0.1876,-0.2006,-0.1886,-0.2201,-0.1876,-0.1826,-0.1788,-0.18,-0.1752,-0.1756,-0.1759,-0.1761,-0.1763,-0.1532,-0.1534,-0.1553,-0.1637,-0.1732,-0.1774,-0.1805,-0.1885,-0.1936,-0.1922,-0.1967,-0.1847,-0.1844,-0.1681,-0.1602,-0.1575,-0.1719,-0.1663,-0.1679,-0.17,-0.163,-0.1574,-0.1441,-0.1443,-0.1445,-0.1447,-0.1448,0,-0.1419,-0.1452,-0.1491,-0.1548,-0.156,-0.1667,-0.172,-0.1678,-0.162,-0.1629,-0.1585,-0.141,-0.1334,-0.1357,-0.126,-0.1251,-0.1274,-0.1199,-0.123,-0.1269,-0.1305,-0.1218,-0.0918,-0.0917,-0.0916,-0.0914,0,0,-0.139,-0.1359,-0.1375,-0.1353,-0.1392,-0.1354,-0.1333,-0.1269,-0.1271,-0.1171,-0.1137,-0.1236,-0.1287,-0.1088,-0.1054,-0.0968,-0.1109,-0.0924,-0.1344,-0.1417,-0.145,-0.1561,-0.147,0,0,0,0,0]},{"header":{"parameterUnit":"m.s-1","parameterCategory":2,"la1":30.2991,"la2":30.254,"lo1":-89.0895,"lo2":-89.0444,"dy":0.0017,"dx":0.0017,"nx":28,"ny":28,"refTime":"2023-09-29T21:00:00:Z","depth":"2","parameterNumber":3,"parameterNumberName":"V-component_of_CURRENTS"},"data":[0,0,0,0,0,0,0,0,0,0,0,0,0,0,0,0,0,0,0,0,0,0,0,0,0,0,0,0,0,0,0,0,0,0,0,0,0,0,0,0,0,0,0,0,0,0,0,0,0,0,0,0,0,0,0,0,0,0,-0.0222,-0.0221,0,-0.0202,-0.0202,-0.0202,-0.0209,-0.0209,-0.0209,-0.0209,-0.0138,-0.0136,-0.0135,0,0,0,0,0,0,0,0,0,0,0,0,0,-0.0252,-0.0252,-0.0222,-0.0221,-0.022,-0.0202,-0.0202,-0.0202,-0.0209,-0.0209,-0.0209,-0.0209,-0.0139,-0.0137,-0.0134,0,0,0,0,0,0,0,0,0,0,0,0,0,-0.0241,-0.0252,-0.0222,-0.0218,-0.0217,-0.0202,-0.0202,-0.0202,-0.0209,-0.0209,-0.0209,-0.0209,-0.014,-0.0137,-0.0134,-0.0117,0,0,-0.0126,-0.0124,0,0,0,0,0,0,0,0,-0.0241,-0.024,-0.0219,-0.0218,-0.0217,-0.0203,-0.0186,-0.0169,-0.0209,-0.0217,-0.0209,-0.0209,-0.0152,-0.0148,-0.0152,-0.0114,-0.0111,-0.0125,-0.0124,-0.0122,-0.0122,0,0,0,0,0,0,0,-0.0242,-0.0241,-0.0219,-0.0218,-0.0217,-0.0212,-0.0211,-0.0184,-0.0188,-0.0216,-0.0215,-0.0206,-0.0152,-0.0155,-0.015,-0.011,-0.0125,-0.0123,-0.0121,-0.012,-0.0068,-0.0068,0,0,0,0,0,0,-0.0236,-0.0242,-0.0219,-0.0218,-0.0224,-0.0211,-0.021,-0.0212,-0.0189,-0.0185,-0.0206,-0.0206,-0.016,-0.0154,-0.0148,-0.0131,-0.0122,-0.012,-0.0118,-0.0067,-0.0068,-0.0068,0,0,0,0,0,0,-0.0237,-0.0234,-0.022,-0.0225,-0.0222,-0.021,-0.0212,-0.0211,-0.0222,-0.0181,-0.0176,-0.0217,-0.016,-0.0152,-0.0117,-0.0128,-0.0119,-0.0116,-0.0067,-0.0068,-0.0068,-0.0093,0,0,0,0,0,0,-0.0238,-0.0235,-0.0241,-0.0225,-0.0221,-0.0199,-0.0211,-0.0211,-0.0213,-0.0214,-0.0189,-0.0182,-0.0159,-0.0121,-0.0114,-0.0123,-0.0114,-0.0067,-0.0067,-0.0068,-0.0091,-0.0094,-0.0096,0,0,0,0,0,-0.0239,-0.0252,-0.0241,-0.0238,-0.0228,-0.0198,-0.0196,-0.0191,-0.0214,-0.0206,-0.0192,-0.0183,-0.0121,-0.0118,-0.011,-0.0119,-0.0066,-0.0067,-0.0068,-0.009,-0.0093,-0.0096,0,0,0,0,0,0,-0.0276,-0.0252,-0.0241,-0.0248,-0.0215,-0.0197,-0.0206,-0.0199,-0.0188,-0.0197,-0.0173,-0.0164,-0.0141,-0.0125,-0.0124,-0.0108,-0.0098,-0.0097,-0.0118,-0.012,-0.0123,-0.0126,-0.0111,0,0,0,0,0,-0.0282,-0.0282,-0.0246,-0.0249,-0.0244,-0.0228,-0.0222,-0.0207,-0.019,-0.0188,-0.0166,-0.0152,-0.0138,-0.0124,-0.01,-0.0083,-0.005,-0.0089,-0.0091,-0.0093,-0.0091,-0.0046,-0.0043,-0.007,-0.007,-0.007,0,0,-0.029,-0.0282,-0.0279,-0.0255,-0.0248,-0.0231,-0.0227,-0.0215,-0.0197,-0.0179,-0.0165,-0.0152,-0.0134,-0.0115,-0.0105,-0.0102,-0.0066,-0.0094,-0.0095,-0.0092,-0.0046,-0.0043,-0.004,-0.0071,-0.0071,-0.0071,0,0,-0.031,-0.0311,-0.0314,-0.0288,-0.026,-0.0244,-0.0241,-0.0213,-0.0204,-0.0171,-0.0169,-0.0149,-0.0124,-0.0108,-0.0102,-0.01,-0.0078,-0.0116,-0.0129,-0.0085,-0.0082,-0.0079,-0.0026,-0.0018,-0.0119,-0.0119,-0.0119,0,-0.0323,-0.0327,-0.0306,-0.0298,-0.0285,-0.0254,-0.0244,-0.0224,-0.018,-0.0176,-0.0164,-0.0142,-0.0116,-0.0111,-0.0116,-0.0103,-0.0081,-0.012,-0.0087,-0.0083,-0.008,-0.0025,-0.0016,-0.0121,-0.012,-0.012,-0.012,0,-0.0331,-0.0335,-0.0343,-0.0322,-0.0294,-0.0288,-0.024,-0.0227,-0.0217,-0.0188,-0.0169,-0.013,-0.012,-0.0119,-0.0117,-0.0102,-0.0094,-0.0092,-0.0078,-0.0078,-0.0021,-0.0011,-0.0122,-0.0122,-0.0122,-0.0121,0,0,-0.0366,-0.0354,-0.0357,-0.0365,-0.0313,-0.0303,-0.0273,-0.0245,-0.0253,-0.0195,-0.0189,-0.016,-0.0148,-0.0141,-0.0134,-0.0102,-0.005,-0.01,-0.0097,-0.0044,0.0045,0.0066,0.0079,-0.0054,-0.0053,-0.0052,0.0078,0,-0.0388,-0.0393,-0.037,-0.0376,-0.0378,-0.0343,-0.0325,-0.0284,-0.0251,-0.0228,-0.0183,-0.0169,-0.0154,-0.0162,-0.0121,-0.0071,-0.0028,-0.0085,0.0034,0.0038,0.0059,0.009,0.0065,0.0179,0.0088,0.0089,0.0091,0,-0.0398,-0.0409,-0.0413,-0.0428,-0.0431,-0.042,-0.0409,-0.0385,-0.0329,-0.0308,-0.0267,-0.0224,-0.0167,-0.0154,-0.004,-0.0086,-0.0026,0.0024,0.003,0.0065,0.0077,0.0162,0.0201,0.0108,0.0106,0.0105,0.0104,0,-0.043,-0.0446,-0.0464,-0.0458,-0.0452,-0.0464,-0.0463,-0.0411,-0.0414,-0.0353,-0.0332,-0.0256,-0.0208,-0.0124,-0.0008,-0.0032,0.013,0.0121,0.0205,0.0208,0.0221,0.0222,0.0208,0.0208,0.0207,0.0207,0.0207,0,-0.046,-0.0486,-0.0493,-0.0504,-0.0558,-0.0512,-0.0547,-0.0537,-0.0497,-0.0489,-0.0383,-0.0341,-0.0203,-0.0088,0.0,0.0147,0.0149,0.0218,0.0245,0.0211,0.021,0.0168,0.0162,0.0212,0.0211,0.021,0.0209,0,-0.0488,-0.0488,-0.0537,-0.0559,-0.0571,-0.0608,-0.0632,-0.065,-0.0593,-0.0568,-0.0549,-0.0398,-0.0239,-0.0084,0.0082,0.0166,0.0294,0.034,0.0298,0.0317,0.0341,0.0331,0.0454,0.0456,0.0458,0.0459,0.046,0,-0.0496,-0.0515,-0.0583,-0.0637,-0.0661,-0.0705,-0.073,-0.0711,-0.0716,-0.0601,-0.0589,-0.0411,-0.0275,0.0008,0.0178,0.0371,0.0352,0.0448,0.0404,0.0353,0.0368,0.0356,0.0345,0.042,0.042,0.0421,0.0422,0,-0.0532,-0.0565,-0.062,-0.0722,-0.0782,-0.0837,-0.0864,-0.0881,-0.0827,-0.0755,-0.0625,-0.0493,-0.02,0.0034,0.0286,0.0379,0.0416,0.0465,0.0444,0.035,0.0328,0.0339,0.0328,0.0427,0.0426,0.0426,0.0425,0.0425,-0.058,-0.0645,-0.0728,-0.0834,-0.0902,-0.0952,-0.0976,-0.0962,-0.0932,-0.08,-0.0669,-0.0434,-0.0196,0.0173,0.0343,0.049,0.0481,0.0511,0.0506,0.0502,0.0463,0.0444,0.0558,0.0559,0.0559,0.0559,0.0559,0,-0.0645,-0.0728,-0.083,-0.0952,-0.1024,-0.1032,-0.1056,-0.103,-0.0961,-0.0803,-0.0637,-0.0353,-0.0071,0.0159,0.0404,0.0552,0.0522,0.0562,0.0501,0.0496,0.0491,0.0449,0.0543,0.0543,0.0543,0.0544,0,0,-0.0701,-0.082,-0.0879,-0.1033,-0.1094,-0.1149,-0.1148,-0.106,-0.0948,-0.0763,-0.0582,-0.0345,-0.0052,0.012,0.0312,0.0437,0.0417,0.0435,0.0433,0.0334,0.0327,0.0451,0.0378,0,0,0,0,0]}],[{"header":{"parameterUnit":"m.s-1","parameterCategory":2,"la1":30.2991,"la2":30.254,"lo1":-89.0895,"lo2":-89.0444,"dy":0.0017,"dx":0.0017,"nx":28,"ny":28,"refTime":"2023-09-29T21:00:00:Z","depth":"4","parameterNumber":2,"parameterNumberName":"U-component_of_CURRENTS"},"data":[0,0,0,0,0,0,0,0,0,0,0,0,0,0,0,0,0,0,0,0,0,0,0,0,0,0,0,0,0,0,0,0,0,0,0,0,0,0,0,0,0,0,0,0,0,0,0,0,0,0,0,0,0,0,0,0,0,0,-0.0356,-0.0357,0,-0.0431,-0.0431,-0.0432,-0.0462,-0.0462,-0.0462,-0.0463,-0.0499,-0.0499,-0.05,0,0,0,0,0,0,0,0,0,0,0,0,0,-0.0307,-0.0307,-0.0356,-0.0357,-0.0359,-0.0431,-0.0431,-0.0432,-0.0462,-0.0462,-0.0463,-0.0463,-0.0498,-0.0499,-0.05,0,0,0,0,0,0,0,0,0,0,0,0,0,-0.0345,-0.0307,-0.0355,-0.0386,-0.039,-0.0431,-0.0431,-0.0432,-0.0462,-0.0462,-0.0463,-0.0463,-0.0498,-0.0499,-0.05,-0.0497,0,0,-0.0503,-0.0504,0,0,0,0,0,0,0,0,-0.0343,-0.0346,-0.038,-0.0384,-0.0389,-0.0442,-0.0428,-0.0454,-0.0462,-0.0429,-0.0463,-0.0463,-0.0479,-0.0482,-0.0488,-0.0499,-0.0501,-0.0503,-0.0504,-0.0504,-0.0505,0,0,0,0,0,0,0,-0.034,-0.0343,-0.038,-0.0382,-0.0387,-0.042,-0.0425,-0.0433,-0.0446,-0.0432,-0.0436,-0.0452,-0.048,-0.0487,-0.0489,-0.0501,-0.0503,-0.0504,-0.0505,-0.0505,-0.0539,-0.0539,0,0,0,0,0,0,-0.0337,-0.034,-0.0378,-0.0383,-0.0372,-0.0421,-0.0426,-0.042,-0.0447,-0.0453,-0.0452,-0.0453,-0.0485,-0.0488,-0.049,-0.0512,-0.0504,-0.0505,-0.0506,-0.0538,-0.0539,-0.0539,0,0,0,0,0,0,-0.0335,-0.0338,-0.0375,-0.0369,-0.0377,-0.0421,-0.0415,-0.0421,-0.0434,-0.0463,-0.0468,-0.0459,-0.0485,-0.0489,-0.0511,-0.0513,-0.0506,-0.0507,-0.0538,-0.0538,-0.0539,-0.0541,0,0,0,0,0,0,-0.0333,-0.0337,-0.0317,-0.0368,-0.0377,-0.0401,-0.0415,-0.0423,-0.0446,-0.0449,-0.047,-0.0474,-0.0486,-0.0509,-0.0512,-0.0514,-0.0508,-0.0538,-0.0538,-0.0539,-0.0541,-0.0542,-0.0542,0,0,0,0,0,-0.033,-0.0305,-0.0315,-0.032,-0.0352,-0.0402,-0.0409,-0.044,-0.0446,-0.0451,-0.0472,-0.0474,-0.0514,-0.051,-0.0513,-0.0516,-0.0537,-0.0538,-0.0539,-0.054,-0.0541,-0.0542,0,0,0,0,0,0,-0.0257,-0.0308,-0.032,-0.0305,-0.0353,-0.0409,-0.0414,-0.0439,-0.0459,-0.046,-0.048,-0.0486,-0.0504,-0.051,-0.0505,-0.0527,-0.0524,-0.0525,-0.0524,-0.0526,-0.0526,-0.0535,-0.0508,0,0,0,0,0,-0.0236,-0.0242,-0.0297,-0.0288,-0.0311,-0.0362,-0.038,-0.041,-0.0445,-0.0454,-0.0475,-0.0492,-0.0507,-0.0517,-0.053,-0.0543,-0.0578,-0.0545,-0.0546,-0.0547,-0.0556,-0.0613,-0.062,-0.0541,-0.0541,-0.0541,0,0,-0.0208,-0.0236,-0.0238,-0.0276,-0.0312,-0.0353,-0.0372,-0.041,-0.0439,-0.0454,-0.0483,-0.0495,-0.0511,-0.0529,-0.0537,-0.0536,-0.059,-0.0548,-0.0548,-0.0557,-0.0614,-0.0622,-0.0629,-0.0541,-0.0541,-0.0541,0,0,-0.0185,-0.018,-0.0195,-0.0238,-0.0301,-0.0335,-0.0348,-0.041,-0.0427,-0.0465,-0.0478,-0.0494,-0.0523,-0.0534,-0.0543,-0.0554,-0.0592,-0.0557,-0.057,-0.0625,-0.0632,-0.0639,-0.0706,-0.0718,-0.0558,-0.0558,-0.0558,0,-0.015,-0.0175,-0.0206,-0.0245,-0.0283,-0.033,-0.0371,-0.0394,-0.0454,-0.0485,-0.0476,-0.0528,-0.0526,-0.0557,-0.0556,-0.0555,-0.0606,-0.0564,-0.0628,-0.0635,-0.0642,-0.0708,-0.0722,-0.0558,-0.0558,-0.0558,-0.0558,0,-0.0166,-0.0185,-0.0199,-0.0265,-0.03,-0.0343,-0.0398,-0.0425,-0.0452,-0.05,-0.0539,-0.0536,-0.0583,-0.0564,-0.0562,-0.0605,-0.0632,-0.0622,-0.0627,-0.065,-0.0719,-0.0733,-0.0559,-0.0559,-0.0559,-0.0559,0,0,-0.0102,-0.0193,-0.0199,-0.0243,-0.032,-0.0358,-0.0398,-0.047,-0.0526,-0.0546,-0.0627,-0.06,-0.0625,-0.0635,-0.0625,-0.0642,-0.0718,-0.0654,-0.0657,-0.0724,-0.0868,-0.081,-0.082,-0.0732,-0.0734,-0.0736,-0.0901,0,-0.0114,-0.0178,-0.0226,-0.0295,-0.0339,-0.0398,-0.0444,-0.0511,-0.0567,-0.0656,-0.0657,-0.0728,-0.0647,-0.0684,-0.0684,-0.0729,-0.0756,-0.0676,-0.0832,-0.0837,-0.0785,-0.0834,-0.0743,-0.0912,-0.0915,-0.0917,-0.0919,0,-0.013,-0.0172,-0.0246,-0.0334,-0.036,-0.0409,-0.051,-0.0563,-0.0684,-0.073,-0.0788,-0.0844,-0.0884,-0.0816,-0.0874,-0.0838,-0.0854,-0.0859,-0.0867,-0.0821,-0.0805,-0.0881,-0.0946,-0.0944,-0.0942,-0.094,-0.0939,0,-0.0089,-0.0185,-0.0245,-0.0282,-0.0393,-0.0434,-0.0483,-0.0594,-0.0676,-0.0809,-0.091,-0.0956,-0.1021,-0.1031,-0.1037,-0.0991,-0.1117,-0.1066,-0.1021,-0.1019,-0.1022,-0.1012,-0.1113,-0.1113,-0.1113,-0.1112,-0.1112,0,-0.0091,-0.0133,-0.0241,-0.027,-0.037,-0.0433,-0.0538,-0.0605,-0.0746,-0.0868,-0.0958,-0.1047,-0.1081,-0.1165,-0.113,-0.1132,-0.1201,-0.1043,-0.1059,-0.1019,-0.1008,-0.1033,-0.1022,-0.1118,-0.1117,-0.1116,-0.1115,0,-0.0074,-0.0124,-0.022,-0.0329,-0.0363,-0.0448,-0.0575,-0.0658,-0.078,-0.0951,-0.1018,-0.1174,-0.1256,-0.1292,-0.134,-0.1261,-0.1266,-0.1246,-0.1243,-0.1253,-0.1112,-0.1099,-0.1231,-0.123,-0.1229,-0.1229,-0.1229,0,-0.0071,-0.0109,-0.0271,-0.0309,-0.0368,-0.0469,-0.054,-0.0669,-0.076,-0.0995,-0.1086,-0.1261,-0.133,-0.1376,-0.137,-0.1366,-0.1304,-0.1327,-0.1156,-0.1123,-0.1126,-0.1113,-0.1101,-0.1228,-0.1228,-0.1227,-0.1227,0,-0.0066,-0.0145,-0.0246,-0.0321,-0.0403,-0.0507,-0.0597,-0.0683,-0.0849,-0.0989,-0.1139,-0.1224,-0.1327,-0.1337,-0.1368,-0.1328,-0.1324,-0.1319,-0.1317,-0.1157,-0.1121,-0.1121,-0.111,-0.1225,-0.1226,-0.1226,-0.1226,0,-0.0075,-0.0152,-0.0245,-0.0322,-0.0424,-0.0493,-0.0566,-0.0666,-0.0795,-0.1046,-0.1077,-0.1223,-0.1322,-0.1322,-0.1333,-0.1323,-0.1257,-0.118,-0.1184,-0.1187,-0.1084,-0.1026,-0.1136,0,0,0,0,0,-0.0051,-0.0071,-0.0166,-0.0267,-0.0385,-0.0425,-0.0574,-0.0653,-0.0841,-0.0932,-0.1001,-0.1087,-0.1152,-0.121,-0.118,-0.1273,-0.1242,-0.1231,-0.1149,-0.1214,-0.1217,-0.1092,0,0,0,0,0,0,-0.0009,-0.0081,-0.0149,-0.0205,-0.025,-0.0373,-0.0479,-0.0617,-0.0661,-0.0838,-0.0876,-0.0993,-0.1058,-0.1137,-0.1143,-0.1158,-0.1081,-0.1303,-0.13,-0.1213,-0.1215,-0.1217,-0.109,0,0,0,0,0]},{"header":{"parameterUnit":"m.s-1","parameterCategory":2,"la1":30.2991,"la2":30.254,"lo1":-89.0895,"lo2":-89.0444,"dy":0.0017,"dx":0.0017,"nx":28,"ny":28,"refTime":"2023-09-29T21:00:00:Z","depth":"4","parameterNumber":3,"parameterNumberName":"V-component_of_CURRENTS"},"data":[0,0,0,0,0,0,0,0,0,0,0,0,0,0,0,0,0,0,0,0,0,0,0,0,0,0,0,0,0,0,0,0,0,0,0,0,0,0,0,0,0,0,0,0,0,0,0,0,0,0,0,0,0,0,0,0,0,0,0.0084,0.0084,0,0.0107,0.0107,0.0107,0.0123,0.0123,0.0123,0.0123,0.0101,0.01,0.01,0,0,0,0,0,0,0,0,0,0,0,0,0,0.007,0.007,0.0083,0.0084,0.0084,0.0107,0.0107,0.0107,0.0123,0.0123,0.0123,0.0123,0.0101,0.01,0.01,0,0,0,0,0,0,0,0,0,0,0,0,0,0.0083,0.007,0.0083,0.0094,0.0096,0.0107,0.0107,0.0108,0.0123,0.0123,0.0123,0.0123,0.0102,0.0101,0.01,0.0091,0,0,0.0096,0.0096,0,0,0,0,0,0,0,0,0.0082,0.0084,0.0092,0.0094,0.0095,0.0112,0.0094,0.01,0.0123,0.0113,0.0123,0.0123,0.01,0.0099,0.0104,0.009,0.0089,0.0096,0.0096,0.0095,0.0095,0,0,0,0,0,0,0,0.0081,0.0083,0.0093,0.0093,0.0094,0.0104,0.0106,0.0096,0.0105,0.0114,0.0115,0.0117,0.0101,0.0105,0.0104,0.0088,0.0096,0.0096,0.0095,0.0095,0.0084,0.0084,0,0,0,0,0,0,0.0077,0.0082,0.0092,0.0094,0.0089,0.0104,0.0106,0.0107,0.0106,0.0106,0.0117,0.0118,0.0107,0.0105,0.0103,0.0115,0.0095,0.0094,0.0094,0.0084,0.0084,0.0084,0,0,0,0,0,0,0.0077,0.0078,0.0091,0.0088,0.0091,0.0104,0.0104,0.0107,0.0115,0.0109,0.0108,0.0122,0.0107,0.0104,0.0101,0.0113,0.0094,0.0093,0.0083,0.0084,0.0084,0.0123,0,0,0,0,0,0,0.0076,0.0077,0.008,0.0088,0.0091,0.0099,0.0104,0.0107,0.0115,0.0117,0.0113,0.0111,0.0107,0.0103,0.01,0.0111,0.0092,0.0083,0.0083,0.0084,0.0122,0.0125,0.0128,0,0,0,0,0,0.0075,0.0075,0.008,0.0081,0.0092,0.0099,0.0102,0.0112,0.0115,0.0119,0.012,0.0111,0.0105,0.0102,0.0099,0.011,0.0083,0.0083,0.0084,0.012,0.0124,0.0128,0,0,0,0,0,0,0.0079,0.0077,0.0082,0.0084,0.0093,0.0102,0.0107,0.0113,0.0118,0.0119,0.0113,0.0112,0.0114,0.0104,0.0101,0.0108,0.0093,0.0093,0.0121,0.0125,0.0128,0.0108,0.0091,0,0,0,0,0,0.0079,0.0071,0.0081,0.0082,0.0087,0.0098,0.0103,0.011,0.0114,0.0117,0.0115,0.0113,0.0114,0.0113,0.0108,0.0109,0.0106,0.0114,0.0117,0.012,0.0102,0.0125,0.0129,0.0087,0.0087,0.0087,0,0,0.008,0.0079,0.0075,0.0081,0.0089,0.0092,0.0101,0.011,0.0115,0.0112,0.0117,0.0121,0.0116,0.0123,0.0123,0.0117,0.0133,0.0121,0.0124,0.0103,0.0127,0.0131,0.0134,0.0087,0.0087,0.0087,0,0,0.0069,0.0079,0.0066,0.0074,0.0083,0.0092,0.0094,0.0106,0.0116,0.012,0.0126,0.0133,0.013,0.0134,0.0135,0.0148,0.0148,0.0154,0.0155,0.018,0.0184,0.0187,0.02,0.0203,0.0157,0.0157,0.0158,0,0.0073,0.0057,0.0067,0.0063,0.0066,0.0089,0.0084,0.0102,0.0112,0.0114,0.0123,0.0126,0.0131,0.0137,0.0152,0.0154,0.0167,0.0145,0.0185,0.0188,0.0191,0.0203,0.0206,0.0159,0.0159,0.0159,0.0159,0,0.0049,0.0045,0.0042,0.004,0.0049,0.0051,0.0073,0.008,0.0095,0.0109,0.0119,0.0133,0.0132,0.0148,0.0157,0.0179,0.0183,0.0189,0.0178,0.0197,0.0209,0.0212,0.0162,0.0162,0.0161,0.016,0,0,0.0036,0.0023,0.0025,0.0012,0.0036,0.0033,0.0049,0.0059,0.005,0.0087,0.0081,0.0114,0.0129,0.0129,0.015,0.0177,0.0224,0.0197,0.0197,0.0212,0.0279,0.0271,0.0273,0.0251,0.0251,0.0251,0.0284,0,0.0014,-0.0011,-0.0005,-0.0022,-0.0032,-0.0009,-0.0007,0.0011,0.003,0.0035,0.0077,0.0081,0.0123,0.0123,0.0166,0.0206,0.0233,0.0214,0.0253,0.0253,0.0247,0.0277,0.0253,0.0286,0.0287,0.0288,0.0288,0,-0.0013,-0.0029,-0.0052,-0.0077,-0.0079,-0.0081,-0.0088,-0.0083,-0.0053,-0.004,-0.0007,0.0026,0.0079,0.0105,0.0193,0.0187,0.023,0.0262,0.0265,0.0238,0.0251,0.0258,0.0294,0.0293,0.0293,0.0293,0.0292,0,-0.004,-0.0065,-0.0092,-0.0093,-0.0107,-0.0119,-0.0123,-0.0107,-0.0119,-0.0084,-0.0091,-0.0013,0.001,0.0093,0.0187,0.0195,0.0275,0.0291,0.0315,0.0315,0.0294,0.029,0.0332,0.0332,0.0332,0.0332,0.0332,0,-0.0067,-0.009,-0.0113,-0.0124,-0.0177,-0.016,-0.02,-0.0199,-0.0193,-0.0208,-0.013,-0.0121,0.0011,0.0081,0.0172,0.0261,0.0269,0.031,0.0324,0.0311,0.0309,0.0298,0.0293,0.0333,0.0333,0.0333,0.0332,0,-0.0094,-0.0101,-0.0154,-0.0182,-0.0192,-0.0233,-0.0263,-0.0293,-0.0276,-0.0294,-0.0284,-0.0195,-0.0089,0.0027,0.0154,0.0222,0.0311,0.033,0.03,0.0312,0.0337,0.0334,0.0364,0.0364,0.0364,0.0364,0.0364,0,-0.0105,-0.0128,-0.0203,-0.0242,-0.0258,-0.0303,-0.0334,-0.0337,-0.0357,-0.0335,-0.0343,-0.0253,-0.0178,-0.0,0.0131,0.0288,0.0304,0.0339,0.0348,0.033,0.0341,0.0338,0.0335,0.0364,0.0364,0.0364,0.0364,0,-0.0124,-0.0161,-0.0217,-0.0297,-0.0348,-0.0414,-0.0443,-0.0467,-0.046,-0.045,-0.0386,-0.0282,-0.0171,-0.0002,0.0111,0.0226,0.032,0.034,0.0341,0.0349,0.0331,0.0341,0.0338,0.0364,0.0364,0.0364,0.0364,0,-0.015,-0.0207,-0.0271,-0.0353,-0.0423,-0.0482,-0.0511,-0.0507,-0.0519,-0.0476,-0.0445,-0.0308,-0.0212,-0.0036,0.0079,0.0187,0.0214,0.0242,0.0248,0.025,0.0213,0.0172,0.0167,0,0,0,0,0,-0.0156,-0.0205,-0.0297,-0.0399,-0.0477,-0.0507,-0.0556,-0.057,-0.0555,-0.0521,-0.0481,-0.0367,-0.0179,-0.0081,0.0025,0.0066,0.0219,0.0191,0.0249,0.0365,0.0365,0.0341,0,0,0,0,0,0,-0.0157,-0.0229,-0.0297,-0.04,-0.0467,-0.0549,-0.0584,-0.0594,-0.0558,-0.0519,-0.0408,-0.0343,-0.0151,-0.0231,0.0032,0.0066,0.0114,0.0289,0.029,0.0365,0.0365,0.0365,0.0341,0,0,0,0,0]}]]